Tracking 21992 objects as of 26-Nov-2020
HD Live streaming from Space Station
objects crossing your sky now

SL-16 R/B

Track SL-16 R/B now!
10-day predictions
SL-16 R/B is classified as:


NORAD ID: 23705
Int'l Code: 1995-058B
Perigee: 839.7 km
Apogee: 858.3 km
Inclination: 71.0 °
Period: 101.8 minutes
Semi major axis: 7219 km
RCS: 9.8957 m2 (large)
Launch date: October 31, 1995
Source: Commonwealth of Independent States (former USSR) (CIS)
Launch site: TYURATAM MISSILE AND SPACE COMPLEX (TTMTR)

Note: This is a ROCKET BODY
aabbcc
Your satellite tracking list
Your tracking list is empty




NASA's NSSDC Master Catalog

Two Line Element Set (TLE):
1 23705U 95058B   20330.89200704 -.00000066 +00000-0 -95982-5 0  9994
2 23705 071.0219 270.2290 0012870 191.2920 168.7916 14.15137668294817
Source of the keplerian elements: AFSPC